| time (UTC) | temp F | wind direction | speed knots | gust knots | rain 1hr in | rain 24hr in | rain mn in | humidity % | barometer mb |
| 20260509023414 | 61 | 90 | 0.0 | 0.0 | 0.00 | 0.00 | 0.00 | 62 | 1023.0 |
| 20260509022414 | 61 | 90 | 0.0 | 0.0 | 0.00 | 0.00 | 0.00 | 60 | 1022.8 |
| 20260509020416 | 62 | 90 | 0.0 | 0.0 | 0.00 | 0.00 | 0.00 | 59 | 1022.9 |
| 20260509015416 | 63 | 90 | 0.0 | 0.0 | 0.00 | 0.00 | 0.00 | 58 | 1022.9 |
| 20260509014514 | 63 | 135 | 0.0 | 0.0 | 0.00 | 0.00 | 0.00 | 57 | 1022.9 |
| 20260509013515 | 64 | 135 | 0.0 | 0.0 | 0.00 | 0.00 | 0.00 | 55 | 1022.9 |
| 20260509012514 | 64 | 112 | 0.0 | 0.0 | 0.00 | 0.00 | 0.00 | 53 | 1023.0 |
| 20260509011513 | 65 | 22 | 0.0 | 1.7 | 0.00 | 0.00 | 0.00 | 51 | 1023.0 |
| 20260509010531 | 65 | 157 | 0.0 | 0.0 | 0.00 | 0.00 | 0.00 | 49 | 1023.0 |
| 20260509005614 | 66 | 157 | 0.0 | 0.0 | 0.00 | 0.00 | 0.00 | 48 | 1023.0 |
| 20260509004614 | 66 | 270 | 0.0 | 0.0 | 0.00 | 0.00 | 0.00 | 46 | 1023.1 |
| 20260509003615 | 66 | 202 | 0.0 | 0.0 | 0.00 | 0.00 | 0.00 | 43 | 1023.1 |
| 20260509002632 | 67 | 180 | 0.0 | 0.9 | 0.00 | 0.00 | 0.00 | 41 | 1023.2 |
| 20260509001615 | 67 | 45 | 0.0 | 0.0 | 0.00 | 0.00 | 0.00 | 39 | 1023.2 |
| 20260509000614 | 67 | 45 | 0.0 | 0.0 | 0.00 | 0.00 | 0.00 | 37 | 1023.2 |
| 20260508235713 | 68 | 79 | 0.0 | 3.5 | 0.00 | 0.00 | 0.00 | 35 | 1023.3 |
| 20260508234715 | 68 | 230 | 0.0 | 0.9 | 0.00 | 0.00 | 0.00 | 35 | 1023.3 |
| 20260508233715 | 68 | 1 | 0.0 | 1.7 | 0.00 | 0.00 | 0.00 | 35 | 1023.2 |
| 20260508232714 | 69 | 154 | 0.0 | 3.5 | 0.00 | 0.00 | 0.00 | 36 | 1023.4 |
| 20260508231714 | 69 | 202 | 0.0 | 0.9 | 0.00 | 0.00 | 0.00 | 35 | 1023.3 |
| 20260508230715 | 69 | 135 | 0.0 | 0.9 | 0.00 | 0.00 | 0.00 | 36 | 1023.4 |
| 20260508225715 | 69 | 232 | 0.0 | 2.6 | 0.00 | 0.00 | 0.00 | 36 | 1023.5 |
| 20260508223814 | 70 | 72 | 0.0 | 0.9 | 0.00 | 0.00 | 0.00 | 37 | 1023.6 |
| 20260508222814 | 70 | 161 | 0.0 | 2.6 | 0.00 | 0.00 | 0.00 | 38 | 1023.7 |
| 20260508221815 | 70 | 165 | 1.7 | 4.3 | 0.00 | 0.00 | 0.00 | 37 | 1023.8 |
| 20260508220915 | 70 | 352 | 0.9 | 2.6 | 0.00 | 0.00 | 0.00 | 36 | 1023.8 |
| 20260508215013 | 71 | 259 | 0.0 | 1.7 | 0.00 | 0.00 | 0.00 | 34 | 1023.8 |
| 20260508214016 | 71 | 121 | 0.0 | 1.7 | 0.00 | 0.00 | 0.00 | 33 | 1023.9 |
| 20260508212131 | 71 | 166 | 2.6 | 3.5 | 0.00 | 0.00 | 0.00 | 33 | 1024.3 |
| 20260508211215 | 71 | 179 | 1.7 | 3.5 | 0.00 | 0.00 | 0.00 | 32 | 1024.1 |
| 20260508210214 | 71 | 190 | 0.0 | 1.7 | 0.00 | 0.00 | 0.00 | 30 | 1024.1 |
| 20260508205217 | 73 | 174 | 1.7 | 3.5 | 0.00 | 0.00 | 0.00 | 30 | 1024.1 |
| 20260508204229 | 74 | 155 | 0.0 | 3.5 | 0.00 | 0.00 | 0.00 | 29 | 1024.2 |
| 20260508203229 | 74 | 157 | 0.0 | 2.6 | 0.00 | 0.00 | 0.00 | 30 | 1024.2 |
| 20260508201214 | 73 | 225 | 1.7 | 1.7 | 0.00 | 0.00 | 0.00 | 29 | 1024.2 |
| 20260508200214 | 73 | 202 | 0.9 | 1.7 | 0.00 | 0.00 | 0.00 | 29 | 1024.5 |
| 20260508194215 | 74 | 168 | 1.7 | 3.5 | 0.00 | 0.00 | 0.00 | 30 | 1024.5 |
| 20260508193216 | 73 | 225 | 0.9 | 1.7 | 0.00 | 0.00 | 0.00 | 28 | 1024.6 |
| 20260508192213 | 74 | 175 | 2.6 | 5.2 | 0.00 | 0.00 | 0.00 | 29 | 1024.4 |
| 20260508191213 | 72 | 181 | 0.9 | 6.1 | 0.00 | 0.00 | 0.00 | 29 | 1024.5 |
| 20260508184214 | 74 | 170 | 0.9 | 2.6 | 0.00 | 0.00 | 0.00 | 26 | 1024.6 |
| 20260508183213 | 73 | 157 | 0.0 | 0.0 | 0.00 | 0.00 | 0.00 | 25 | 1024.8 |
| 20260508181214 | 72 | 153 | 2.6 | 3.5 | 0.00 | 0.00 | 0.00 | 25 | 1024.8 |
| 20260508180215 | 72 | 213 | 1.7 | 2.6 | 0.00 | 0.00 | 0.00 | 27 | 1024.8 |
| 20260508175216 | 71 | 180 | 0.0 | 1.7 | 0.00 | 0.00 | 0.00 | 28 | 1024.7 |
| 20260508174215 | 70 | 247 | 1.7 | 2.6 | 0.00 | 0.00 | 0.00 | 28 | 1024.8 |
| 20260508173214 | 71 | 218 | 0.0 | 0.9 | 0.00 | 0.00 | 0.00 | 29 | 1024.8 |
| 20260508172216 | 71 | 180 | 0.0 | 1.7 | 0.00 | 0.00 | 0.00 | 29 | 1024.7 |
| 20260508171214 | 70 | 180 | 0.0 | 0.0 | 0.00 | 0.00 | 0.00 | 31 | 1024.8 |
| 20260508170213 | 71 | 180 | 0.0 | 0.9 | 0.00 | 0.00 | 0.00 | 32 | 1024.7 |
| 20260508164214 | 68 | 315 | 0.0 | 1.7 | 0.00 | 0.00 | 0.00 | 32 | 1024.8 |
| 20260508163215 | 68 | 180 | 0.0 | 0.0 | 0.00 | 0.00 | 0.00 | 33 | 1024.8 |
| 20260508162214 | 67 | 157 | 0.0 | 0.9 | 0.00 | 0.00 | 0.00 | 36 | 1024.7 |
| 20260508161216 | 65 | 141 | 0.0 | 2.6 | 0.00 | 0.00 | 0.00 | 40 | 1024.7 |
| 20260508160214 | 62 | 180 | 0.0 | 0.9 | 0.00 | 0.00 | 0.00 | 47 | 1024.8 |
| 20260508155229 | 60 | 180 | 0.0 | 0.9 | 0.00 | 0.00 | 0.00 | 45 | 1024.8 |
| 20260508154216 | 59 | 180 | 0.0 | 0.9 | 0.00 | 0.00 | 0.00 | 48 | 1024.8 |
| 20260508153214 | 57 | 337 | 0.0 | 0.0 | 0.00 | 0.00 | 0.00 | 60 | 1024.7 |
| 20260508152313 | 56 | 337 | 0.0 | 0.0 | 0.00 | 0.00 | 0.00 | 65 | 1024.7 |
| 20260508150314 | 54 | 337 | 0.0 | 0.0 | 0.00 | 0.00 | 0.00 | 63 | 1024.6 |
| 20260508145315 | 54 | 337 | 0.0 | 0.0 | 0.00 | 0.00 | 0.00 | 66 | 1024.6 |
| 20260508144315 | 53 | 337 | 0.0 | 0.0 | 0.00 | 0.00 | 0.00 | 68 | 1024.6 |
| 20260508143414 | 52 | 337 | 0.0 | 0.0 | 0.00 | 0.00 | 0.00 | 68 | 1024.5 |
| 20260508142415 | 52 | 337 | 0.0 | 0.0 | 0.00 | 0.00 | 0.00 | 70 | 1024.4 |
| 20260508141513 | 51 | 337 | 0.0 | 0.0 | 0.00 | 0.00 | 0.00 | 72 | 1024.3 |
| 20260508135613 | 51 | 337 | 0.0 | 0.0 | 0.00 | 0.00 | 0.00 | 73 | 1024.3 |
| 20260508134615 | 51 | 337 | 0.0 | 0.0 | 0.00 | 0.00 | 0.00 | 72 | 1024.2 |
| 20260508133614 | 50 | 337 | 0.0 | 0.0 | 0.00 | 0.00 | 0.00 | 73 | 1024.1 |
| 20260508132614 | 49 | 270 | 0.0 | 0.9 | 0.00 | 0.00 | 0.00 | 76 | 1024.0 |
| 20260508131613 | 49 | 157 | 0.0 | 0.0 | 0.00 | 0.00 | 0.00 | 76 | 1024.0 |
| 20260508130614 | 49 | 157 | 0.0 | 0.0 | 0.00 | 0.00 | 0.00 | 77 | 1024.1 |
| 20260508124615 | 49 | 157 | 0.0 | 0.0 | 0.00 | 0.00 | 0.00 | 77 | 1024.0 |
| 20260508123713 | 49 | 157 | 0.0 | 0.0 | 0.00 | 0.00 | 0.00 | 76 | 1024.1 |
| 20260508122715 | 49 | 157 | 0.0 | 0.0 | 0.00 | 0.00 | 0.00 | 76 | 1024.0 |
| 20260508121713 | 49 | 157 | 0.0 | 0.0 | 0.00 | 0.00 | 0.00 | 77 | 1024.0 |
| 20260508120714 | 49 | 157 | 0.0 | 0.0 | 0.00 | 0.00 | 0.00 | 77 | 1024.0 |
| 20260508115716 | 49 | 157 | 0.0 | 0.0 | 0.00 | 0.00 | 0.00 | 77 | 1024.0 |
| 20260508113713 | 48 | 157 | 0.0 | 0.0 | 0.00 | 0.00 | 0.00 | 77 | 1024.0 |
| 20260508111714 | 48 | 157 | 0.0 | 0.0 | 0.00 | 0.00 | 0.00 | 80 | 1024.1 |
| 20260508110713 | 48 | 157 | 0.0 | 0.0 | 0.00 | 0.00 | 0.00 | 79 | 1024.0 |
| 20260508103739 | 50 | 157 | 0.0 | 0.0 | 0.00 | 0.00 | 0.00 | 78 | 1024.2 |
| 20260508103513 | 49 | 157 | 0.0 | 0.0 | 0.00 | 0.00 | 0.00 | 78 | 1024.1 |
| 20260508102516 | 49 | 157 | 0.0 | 0.0 | 0.00 | 0.00 | 0.00 | 78 | 1024.0 |
| 20260508101515 | 49 | 157 | 0.0 | 0.0 | 0.00 | 0.00 | 0.00 | 79 | 1024.2 |
| 20260508100613 | 49 | 157 | 0.0 | 0.0 | 0.00 | 0.00 | 0.00 | 77 | 1024.1 |
| 20260508095613 | 49 | 157 | 0.0 | 0.0 | 0.00 | 0.00 | 0.00 | 76 | 1024.1 |
| 20260508093713 | 50 | 157 | 0.0 | 0.0 | 0.00 | 0.00 | 0.00 | 74 | 1024.1 |
| 20260508092713 | 50 | 157 | 0.0 | 0.0 | 0.00 | 0.00 | 0.00 | 71 | 1024.1 |
| 20260508090715 | 51 | 157 | 0.0 | 0.0 | 0.00 | 0.00 | 0.00 | 69 | 1024.1 |
| 20260508085813 | 51 | 157 | 0.0 | 0.0 | 0.00 | 0.00 | 0.00 | 68 | 1024.1 |
| 20260508084817 | 51 | 157 | 0.0 | 0.0 | 0.00 | 0.00 | 0.00 | 67 | 1024.1 |
| 20260508083814 | 51 | 157 | 0.0 | 0.0 | 0.00 | 0.00 | 0.00 | 66 | 1024.1 |
| 20260508082814 | 50 | 157 | 0.0 | 0.0 | 0.00 | 0.00 | 0.00 | 67 | 1024.2 |
| 20260508081816 | 49 | 157 | 0.0 | 0.0 | 0.00 | 0.00 | 0.00 | 71 | 1024.3 |
| 20260508080813 | 50 | 157 | 0.0 | 0.0 | 0.00 | 0.00 | 0.00 | 72 | 1024.4 |
| 20260508075815 | 50 | 157 | 0.0 | 0.0 | 0.00 | 0.00 | 0.00 | 71 | 1024.5 |
| 20260508074814 | 50 | 157 | 0.0 | 0.0 | 0.00 | 0.00 | 0.00 | 71 | 1024.5 |
| 20260508072815 | 50 | 157 | 0.0 | 0.0 | 0.00 | 0.00 | 0.00 | 71 | 1024.7 |
| 20260508071816 | 49 | 157 | 0.0 | 0.0 | 0.00 | 0.00 | 0.00 | 74 | 1024.7 |
| 20260508070814 | 50 | 157 | 0.0 | 0.0 | 0.00 | 0.00 | 0.00 | 74 | 1024.7 |
| 20260508065827 | 50 | 157 | 0.0 | 0.0 | 0.00 | 0.00 | 0.00 | 76 | 1024.8 |
| 20260508064845 | 50 | 157 | 0.0 | 0.0 | 0.00 | 0.00 | 0.00 | 77 | 1024.7 |
| 20260508063826 | 50 | 157 | 0.0 | 0.0 | 0.00 | 0.00 | 0.00 | 78 | 1024.8 |
| 20260508062842 | 50 | 157 | 0.0 | 0.0 | 0.00 | 0.00 | 0.00 | 78 | 1024.9 |
| 20260508061828 | 50 | 157 | 0.0 | 0.0 | 0.00 | 0.00 | 0.00 | 79 | 1024.8 |
| 20260508060729 | 50 | 157 | 0.0 | 0.0 | 0.00 | 0.00 | 0.00 | 79 | 1024.9 |
| 20260508055727 | 50 | 157 | 0.0 | 0.0 | 0.00 | 0.00 | 0.00 | 78 | 1025.0 |
| 20260508054729 | 51 | 157 | 0.0 | 0.0 | 0.00 | 0.00 | 0.00 | 77 | 1025.0 |
| 20260508052728 | 52 | 157 | 0.0 | 0.0 | 0.00 | 0.00 | 0.00 | 78 | 1025.0 |
| 20260508051728 | 52 | 157 | 0.0 | 0.0 | 0.00 | 0.00 | 0.00 | 78 | 1025.0 |
| 20260508050827 | 52 | 157 | 0.0 | 0.0 | 0.00 | 0.00 | 0.00 | 77 | 1024.9 |
| 20260508045927 | 52 | 157 | 0.0 | 0.0 | 0.00 | 0.00 | 0.00 | 77 | 1025.1 |
| 20260508044928 | 53 | 157 | 0.0 | 0.0 | 0.00 | 0.00 | 0.00 | 76 | 1025.1 |
| 20260508044027 | 53 | 157 | 0.0 | 0.0 | 0.00 | 0.00 | 0.00 | 76 | 1024.9 |
| 20260508043126 | 54 | 157 | 0.0 | 0.0 | 0.00 | 0.00 | 0.00 | 76 | 1024.9 |
| 20260508042143 | 54 | 157 | 0.0 | 0.0 | 0.00 | 0.00 | 0.00 | 75 | 1024.8 |
| 20260508041228 | 54 | 157 | 0.0 | 0.0 | 0.00 | 0.00 | 0.00 | 74 | 1024.7 |
| 20260508040228 | 55 | 157 | 0.0 | 0.0 | 0.00 | 0.00 | 0.00 | 73 | 1024.7 |
| 20260508035228 | 55 | 157 | 0.0 | 0.0 | 0.00 | 0.00 | 0.00 | 73 | 1024.7 |
| 20260508034228 | 56 | 157 | 0.0 | 0.0 | 0.00 | 0.00 | 0.00 | 72 | 1024.6 |
| 20260508033227 | 56 | 157 | 0.0 | 0.0 | 0.00 | 0.00 | 0.00 | 71 | 1024.6 |
| 20260508031229 | 58 | 157 | 0.0 | 0.0 | 0.00 | 0.00 | 0.00 | 68 | 1024.4 |
| 20260508030227 | 58 | 157 | 0.0 | 0.0 | 0.00 | 0.00 | 0.00 | 66 | 1024.5 |
| 20260508025228 | 59 | 157 | 0.0 | 0.0 | 0.00 | 0.00 | 0.00 | 63 | 1024.3 |